SLI2460 MMMX-MMQT

Flight info

Callsign SLI2460
Flight time 0h 33m
Altitude 24000
Route SEBON3A SEBON UT144 QET
Aircraft E190/M-SDE3GILORVW/S

Departure

Time 2026-05-07 16:49
Airport Mexico City Benito Juárez International Airport (MMMX)

Arrival

Time 2026-05-07 17:23
Airport Querétaro Intercontinental Airport (MMQT)
Time Latitude Longitude Altitude Speed Heading
2026-05-07 16:34 19.42064 -99.08040 7344 ft 0 kts 210°
2026-05-07 16:42 19.42071 -99.08036 7351 ft 2 kts 210°
2026-05-07 16:42 19.42084 -99.08028 7353 ft 2 kts 213°
2026-05-07 16:43 19.42093 -99.08016 7352 ft 2 kts 248°
2026-05-07 16:43 19.42096 -99.08000 7349 ft 2 kts 275°
2026-05-07 16:43 19.42093 -99.07988 7347 ft 0 kts 297°
2026-05-07 16:43 19.42090 -99.07981 7344 ft 1 kts 301°
2026-05-07 16:44 19.42089 -99.07980 7344 ft 0 kts 301°
2026-05-07 16:45 19.42094 -99.07989 7344 ft 3 kts 301°
2026-05-07 16:46 19.42115 -99.08027 7344 ft 6 kts 300°
2026-05-07 16:46 19.42146 -99.08082 7344 ft 9 kts 301°
2026-05-07 16:46 19.42181 -99.08143 7344 ft 9 kts 301°
2026-05-07 16:46 19.42225 -99.08201 7344 ft 11 kts 342°
2026-05-07 16:47 19.42313 -99.08202 7344 ft 13 kts
2026-05-07 16:47 19.42400 -99.08218 7344 ft 12 kts 330°
2026-05-07 16:47 19.42474 -99.08261 7345 ft 12 kts 331°
2026-05-07 16:47 19.42552 -99.08303 7345 ft 13 kts 333°
2026-05-07 16:48 19.42644 -99.08353 7346 ft 14 kts 331°
2026-05-07 16:48 19.42734 -99.08404 7347 ft 14 kts 332°
2026-05-07 16:48 19.42808 -99.08397 7348 ft 10 kts 56°
2026-05-07 16:48 19.42867 -99.08292 7350 ft 37 kts 59°
2026-05-07 16:49 19.43108 -99.07861 7350 ft 96 kts 59°
2026-05-07 16:49 19.43540 -99.07095 7339 ft 146 kts 59°
2026-05-07 16:49 19.44111 -99.06068 7513 ft 164 kts 60°
2026-05-07 16:49 19.44695 -99.05044 7935 ft 169 kts 58°
2026-05-07 16:50 19.45390 -99.03931 8131 ft 185 kts 57°
2026-05-07 16:50 19.46089 -99.02792 8660 ft 184 kts 57°
2026-05-07 16:50 19.46650 -99.01516 8829 ft 207 kts 85°
2026-05-07 16:50 19.46236 -99.00001 8965 ft 232 kts 127°
2026-05-07 16:51 19.44854 -98.99058 9211 ft 252 kts 166°
2026-05-07 16:51 19.43065 -98.99212 9555 ft 270 kts 205°
2026-05-07 16:51 19.41546 -99.00416 10240 ft 273 kts 223°
2026-05-07 16:51 19.40149 -99.01792 10871 ft 279 kts 223°
2026-05-07 16:52 19.38721 -99.03198 11490 ft 285 kts 223°
2026-05-07 16:52 19.37365 -99.04747 12129 ft 290 kts 242°
2026-05-07 16:52 19.36848 -99.06791 12677 ft 297 kts 268°
2026-05-07 16:52 19.36645 -99.09038 12797 ft 324 kts 263°
2026-05-07 16:53 19.36311 -99.11494 13081 ft 344 kts 262°
2026-05-07 16:53 19.35953 -99.14012 13672 ft 351 kts 261°
2026-05-07 16:53 19.35581 -99.16577 14456 ft 352 kts 261°
2026-05-07 16:53 19.35210 -99.19119 15265 ft 351 kts 260°
2026-05-07 16:54 19.34848 -99.21597 16310 ft 341 kts 259°
2026-05-07 16:54 19.34492 -99.24019 17251 ft 333 kts 259°
2026-05-07 16:54 19.34137 -99.26433 17957 ft 333 kts 258°
2026-05-07 16:54 19.33780 -99.28853 18499 ft 338 kts 258°
2026-05-07 16:55 19.33418 -99.31311 19019 ft 343 kts 258°
2026-05-07 16:55 19.33047 -99.33828 19560 ft 347 kts 258°
2026-05-07 16:55 19.32675 -99.36354 20123 ft 349 kts 258°
2026-05-07 16:55 19.32408 -99.38891 20676 ft 354 kts 271°
2026-05-07 16:56 19.32916 -99.41491 20951 ft 370 kts 284°
2026-05-07 16:56 19.33667 -99.44131 21091 ft 385 kts 284°
2026-05-07 16:56 19.35228 -99.49627 21473 ft 386 kts 284°
2026-05-07 16:57 19.35992 -99.52325 21496 ft 389 kts 284°
2026-05-07 16:57 19.36775 -99.55091 21502 ft 391 kts 284°
2026-05-07 16:57 19.37551 -99.57832 21491 ft 391 kts 284°
2026-05-07 16:57 19.38116 -99.60628 21482 ft 385 kts 268°
2026-05-07 16:58 19.38021 -99.63471 21680 ft 393 kts 264°
2026-05-07 16:58 19.37855 -99.66368 22194 ft 395 kts 263°
2026-05-07 16:58 19.37682 -99.69265 22852 ft 392 kts 263°
2026-05-07 16:58 19.37508 -99.72099 23405 ft 389 kts 263°
2026-05-07 16:59 19.37331 -99.74971 23494 ft 392 kts 263°
2026-05-07 16:59 19.37150 -99.77882 23521 ft 393 kts 263°
2026-05-07 16:59 19.36973 -99.80731 23536 ft 393 kts 263°
2026-05-07 16:59 19.36792 -99.83624 23551 ft 393 kts 263°
2026-05-07 17:00 19.36609 -99.86535 23759 ft 403 kts 263°
2026-05-07 17:00 19.36422 -99.89495 24302 ft 403 kts 263°
2026-05-07 17:00 19.36236 -99.92439 24614 ft 399 kts 263°
2026-05-07 17:00 19.36053 -99.95332 24646 ft 397 kts 263°
2026-05-07 17:01 19.35867 -99.98251 24649 ft 398 kts 263°
2026-05-07 17:01 19.35681 -100.01173 24652 ft 397 kts 263°
2026-05-07 17:01 19.35496 -100.04067 24652 ft 398 kts 263°
2026-05-07 17:01 19.35310 -100.06987 24643 ft 397 kts 263°
2026-05-07 17:02 19.35211 -100.09925 24622 ft 400 kts 274°
2026-05-07 17:02 19.36030 -100.12737 24647 ft 407 kts 297°
2026-05-07 17:02 19.37814 -100.15064 24643 ft 412 kts 320°
2026-05-07 17:02 19.40245 -100.16681 24664 ft 415 kts 329°
2026-05-07 17:03 19.42752 -100.18214 24618 ft 414 kts 328°
2026-05-07 17:03 19.45254 -100.19763 24630 ft 413 kts 328°
2026-05-07 17:03 19.47735 -100.21307 24630 ft 413 kts 328°
2026-05-07 17:03 19.50209 -100.22849 24634 ft 413 kts 328°
2026-05-07 17:04 19.52680 -100.24389 24641 ft 414 kts 328°
2026-05-07 17:04 19.55187 -100.25952 24648 ft 415 kts 328°
2026-05-07 17:04 19.57657 -100.27474 24624 ft 415 kts 332°
2026-05-07 17:04 19.60455 -100.28328 24641 ft 417 kts 355°
2026-05-07 17:05 19.63343 -100.28294 24696 ft 419 kts
2026-05-07 17:05 19.66260 -100.28127 24704 ft 417 kts
2026-05-07 17:05 19.69183 -100.27943 24705 ft 416 kts
2026-05-07 17:05 19.72085 -100.27755 24708 ft 418 kts
2026-05-07 17:06 19.74975 -100.27567 24711 ft 418 kts
2026-05-07 17:06 19.77910 -100.27375 24715 ft 419 kts
2026-05-07 17:06 19.80794 -100.27187 24554 ft 421 kts
2026-05-07 17:06 19.83719 -100.26996 24102 ft 419 kts
2026-05-07 17:07 19.86644 -100.26804 23625 ft 414 kts
2026-05-07 17:07 19.89519 -100.26617 22836 ft 415 kts
2026-05-07 17:07 19.92368 -100.26430 22389 ft 406 kts
2026-05-07 17:07 19.95162 -100.26247 21951 ft 399 kts
2026-05-07 17:08 19.97903 -100.26067 21506 ft 396 kts
2026-05-07 17:08 20.00668 -100.25887 21065 ft 394 kts
2026-05-07 17:08 20.03408 -100.25645 20638 ft 392 kts
2026-05-07 17:08 20.06132 -100.25349 20214 ft 391 kts
2026-05-07 17:09 20.08836 -100.25057 19789 ft 389 kts
2026-05-07 17:09 20.11505 -100.24768 19364 ft 386 kts
2026-05-07 17:09 20.14179 -100.24480 18928 ft 382 kts
2026-05-07 17:09 20.16805 -100.24196 18507 ft 378 kts
2026-05-07 17:10 20.19437 -100.23910 18090 ft 378 kts
2026-05-07 17:10 20.22028 -100.23633 17684 ft 374 kts
2026-05-07 17:10 20.24605 -100.23357 17274 ft 372 kts
2026-05-07 17:10 20.27201 -100.23077 16838 ft 367 kts
2026-05-07 17:11 20.29713 -100.22808 16415 ft 362 kts
2026-05-07 17:11 20.32212 -100.22540 15994 ft 358 kts
2026-05-07 17:11 20.34684 -100.22275 15602 ft 355 kts
2026-05-07 17:11 20.37116 -100.22014 15205 ft 351 kts
2026-05-07 17:12 20.39537 -100.21754 14792 ft 349 kts
2026-05-07 17:12 20.41956 -100.21493 14385 ft 344 kts
2026-05-07 17:12 20.44342 -100.21237 13976 ft 339 kts
2026-05-07 17:12 20.46657 -100.20988 13592 ft 334 kts
2026-05-07 17:13 20.48959 -100.20740 13211 ft 329 kts
2026-05-07 17:13 20.51226 -100.20496 12863 ft 327 kts
2026-05-07 17:13 20.53510 -100.20251 12478 ft 327 kts
2026-05-07 17:13 20.55790 -100.20005 12087 ft 326 kts
2026-05-07 17:14 20.58042 -100.19763 11683 ft 323 kts
2026-05-07 17:14 20.60255 -100.19524 11312 ft 316 kts
2026-05-07 17:14 20.62414 -100.19197 10970 ft 308 kts 20°
2026-05-07 17:14 20.64152 -100.17949 10910 ft 302 kts 51°
2026-05-07 17:15 20.65037 -100.15940 10782 ft 305 kts 81°
2026-05-07 17:15 20.64845 -100.13695 10579 ft 308 kts 110°
2026-05-07 17:15 20.63687 -100.11803 10258 ft 307 kts 130°
2026-05-07 17:15 20.62286 -100.10084 9895 ft 301 kts 128°
2026-05-07 17:16 20.61397 -100.08160 9580 ft 288 kts 96°
2026-05-07 17:16 20.61596 -100.06116 9290 ft 277 kts 70°
2026-05-07 17:16 20.61887 -100.04074 8670 ft 282 kts 98°
2026-05-07 17:16 20.61703 -100.02082 8700 ft 261 kts 87°
2026-05-07 17:17 20.61832 -100.00211 8664 ft 245 kts 82°
2026-05-07 17:17 20.62065 -99.98449 8639 ft 240 kts 79°
2026-05-07 17:17 20.62146 -99.96669 8640 ft 245 kts 105°
2026-05-07 17:17 20.61290 -99.95115 8735 ft 243 kts 130°
2026-05-07 17:18 20.60174 -99.93876 8894 ft 216 kts 147°
2026-05-07 17:18 20.58746 -99.93520 8897 ft 214 kts 192°
2026-05-07 17:18 20.57497 -99.94314 8960 ft 215 kts 236°
2026-05-07 17:18 20.57106 -99.95808 9030 ft 213 kts 281°
2026-05-07 17:19 20.57752 -99.97205 9140 ft 211 kts 306°
2026-05-07 17:19 20.58572 -99.98515 9095 ft 213 kts 305°
2026-05-07 17:19 20.59369 -99.99841 8910 ft 213 kts 300°
2026-05-07 17:19 20.59946 -100.01285 8697 ft 212 kts 287°
2026-05-07 17:20 20.60013 -100.02857 8418 ft 213 kts 263°
2026-05-07 17:20 20.59815 -100.04388 8313 ft 207 kts 275°
2026-05-07 17:20 20.60192 -100.05862 8368 ft 205 kts 285°
2026-05-07 17:20 20.60180 -100.07402 8282 ft 212 kts 262°
2026-05-07 17:21 20.60007 -100.08905 8030 ft 198 kts 275°
2026-05-07 17:21 20.60191 -100.10272 7781 ft 179 kts 282°
2026-05-07 17:21 20.60406 -100.11528 7460 ft 163 kts 282°
2026-05-07 17:21 20.60615 -100.12648 7176 ft 147 kts 285°
2026-05-07 17:22 20.60846 -100.13678 6974 ft 142 kts 282°
2026-05-07 17:22 20.61034 -100.14722 6822 ft 143 kts 283°
2026-05-07 17:22 20.61224 -100.15778 6560 ft 147 kts 282°
2026-05-07 17:22 20.61418 -100.16834 6343 ft 145 kts 282°
2026-05-07 17:23 20.61602 -100.17830 6301 ft 118 kts 280°
2026-05-07 17:23 20.61723 -100.18481 6288 ft 57 kts 282°
2026-05-07 17:23 20.61857 -100.18654 6285 ft 21 kts 326°
2026-05-07 17:23 20.61988 -100.18694 6287 ft 18 kts 11°
2026-05-07 17:24 20.62091 -100.18698 6287 ft 11 kts 320°
2026-05-07 17:24 20.62156 -100.18707 6287 ft 9 kts 10°
2026-05-07 17:24 20.62187 -100.18700 6288 ft 0 kts 11°